Date String (YYYY-MM-DD hh:mm:ss) UTC,Instrument flags,absolute air pressure of the measurement (hPa),sample flow rate (lpm),inlet stack bypass flow (lpm),air temperature of the measurement (°C),ambient temperature measured by the external sensor (°C),aerosol sample conditioner tube jacket temperature (°C),OPC LED temperature (°C),internal box temperature (°C),relative humidity of the measurement (%),span deviation,mass concentration of particles derived from Lorenz-Mie calculation of OPC scattering (μg/m³),mass concentration of particles derived from Lorenz-Mie calculation of OPC scattering (μg/m³),mass concentration of particles derived from Lorenz-Mie calculation of OPC scattering (μg/m³)
DateTimeUTC,F1_M11,P_M11,Q1_M11,Q2_M11,T1_M11,T2_M11,T3_M11,T4_M11,T5_M11,U1_M11,ZSPAN_M11,X0_M11,X2_M11,X1_M11
2024-02-13 18:00:00,SystemResetWarning,0826.9,5.01,000.00,020.3,019.9,000.0,028.5,022.1,15.1,0004.1,0018.61,0009.52,0008.33
2024-02-13 18:01:00,SystemResetWarning,0826.8,4.99,000.00,020.3,019.9,000.0,028.6,022.2,15.1,0003.6,0018.04,0009.27,0008.21
2024-02-13 18:02:00,SystemResetWarning,0826.8,4.99,000.00,020.3,019.9,000.0,028.6,022.1,14.9,0000.0,0017.72,0009.06,0008.08
2024-02-13 18:03:00,SystemResetWarning,0826.8,5.00,000.00,020.4,020.0,000.0,028.6,022.1,14.9,0000.0,0017.03,0008.91,0007.96
2024-02-13 18:04:00,SystemResetWarning,0826.8,5.01,000.00,020.4,020.0,000.0,028.6,022.1,14.9,0000.0,0015.89,0008.67,0007.82
2024-02-13 18:05:00,SystemResetWarning,0826.8,5.01,000.00,020.4,020.0,000.0,028.6,022.2,15.1,0000.0,0015.49,0008.50,0007.68
2024-02-13 18:06:00,SystemResetWarning,0826.8,4.99,000.00,020.4,020.0,000.0,028.6,022.2,15.2,0000.0,0015.44,0008.33,0007.51
2024-02-13 18:07:00,SystemResetWarning,0826.8,5.00,000.00,020.4,020.0,000.0,028.6,022.2,15.3,0000.0,0015.10,0008.13,0007.32
2024-02-13 18:08:00,SystemResetWarning,0826.7,4.99,000.00,020.5,020.0,000.0,028.6,022.3,15.6,0000.0,0014.26,0007.89,0007.09
2024-02-13 18:09:00,SystemResetWarning,0826.7,5.00,000.00,020.5,020.0,000.0,028.7,022.3,16.0,0000.0,0013.55,0007.62,0006.84
2024-02-13 18:10:00,SystemResetWarning,0826.6,5.00,000.00,020.5,020.1,000.0,028.7,022.3,15.6,0000.0,0013.00,0007.30,0006.58
2024-02-13 18:11:00,SystemResetWarning,0826.6,5.01,000.00,020.5,020.1,000.0,028.7,022.3,15.4,0000.0,0011.75,0006.99,0006.34
2024-02-13 18:12:00,SystemResetWarning,0826.6,5.01,000.00,020.5,020.1,000.0,028.7,022.3,15.6,0000.0,0011.67,0006.80,0006.17
2024-02-13 18:13:00,SystemResetWarning,0826.6,5.00,000.00,020.5,020.1,000.0,028.7,022.3,15.2,0000.0,0011.37,0006.63,0006.01
2024-02-13 18:14:00,SystemResetWarning,0826.6,4.99,000.00,020.5,020.1,000.0,028.7,022.3,15.1,0000.0,0011.41,0006.45,0005.86
2024-02-13 18:15:00,SystemResetWarning,0826.6,4.99,000.00,020.5,020.1,000.0,028.8,022.3,15.8,0000.0,0011.36,0006.34,0005.75
2024-02-13 18:16:00,SystemResetWarning,0826.6,4.99,000.00,020.6,020.1,000.0,028.8,022.3,15.7,0000.0,0011.36,0006.30,0005.66
2024-02-13 18:17:00,SystemResetWarning,0826.6,5.01,000.00,020.6,020.1,000.0,028.8,022.4,15.5,0000.0,0011.20,0006.25,0005.60
2024-02-13 18:18:00,SystemResetWarning,0826.6,5.01,000.00,020.6,020.1,000.0,028.8,022.4,15.4,0000.0,0011.70,0006.22,0005.56
2024-02-13 18:19:00,SystemResetWarning,0826.6,5.00,000.00,020.6,020.1,000.0,028.8,022.4,15.5,0000.0,0012.13,0006.27,0005.54
2024-02-13 18:20:00,SystemResetWarning,0826.6,4.99,000.00,020.6,020.2,000.0,028.8,022.4,15.7,0000.0,0013.07,0006.26,0005.53
2024-02-13 18:21:00,SystemResetWarning,0826.6,4.99,000.00,020.6,020.2,000.0,028.8,022.4,15.7,0000.0,0013.21,0006.24,0005.52
2024-02-13 18:22:00,SystemResetWarning,0826.6,5.01,000.00,020.6,020.2,000.0,028.8,022.4,15.9,0000.0,0013.28,0006.26,0005.54
2024-02-13 18:23:00,SystemResetWarning,0826.6,5.01,000.00,020.6,020.2,000.0,028.9,022.4,15.7,0000.0,0012.99,0006.26,0005.53
2024-02-13 18:24:00,SystemResetWarning,0826.6,5.00,000.00,020.6,020.2,000.0,028.9,022.4,15.9,0000.0,0012.69,0006.25,0005.51
2024-02-13 18:25:00,SystemResetWarning,0826.6,5.00,000.00,020.6,020.2,000.0,028.9,022.4,15.9,0000.0,0012.26,0006.27,0005.52
2024-02-13 18:26:00,SystemResetWarning,0826.6,4.99,000.00,020.7,020.2,000.0,028.9,022.4,15.9,0000.0,0012.40,0006.31,0005.52
2024-02-13 18:27:00,SystemResetWarning,0826.5,4.99,000.00,020.7,020.2,000.0,028.9,022.5,15.6,0000.0,0012.87,0006.28,0005.52
2024-02-13 18:28:00,SystemResetWarning,0826.5,4.99,000.00,020.7,020.2,000.0,028.9,022.5,15.7,0000.0,0013.40,0006.27,0005.54
2024-02-13 18:29:00,SystemResetWarning,0826.6,5.01,000.00,020.7,020.2,000.0,028.9,022.5,15.7,0000.0,0013.45,0006.32,0005.58
2024-02-13 18:30:00,SystemResetWarning,0826.4,5.00,000.00,020.7,020.2,000.0,029.0,022.5,15.2,0000.0,0013.43,0006.33,0005.61
2024-02-13 18:31:00,SystemResetWarning,0826.4,5.00,000.00,020.7,020.3,000.0,029.0,022.5,15.0,0000.0,0013.38,0006.38,0005.65
2024-02-13 18:32:00,SystemResetWarning,0826.4,5.00,000.00,020.7,020.3,000.0,029.0,022.5,14.6,0000.0,0013.72,0006.47,0005.68
2024-02-13 18:33:00,SystemResetWarning,0826.4,5.00,000.00,020.7,020.3,000.0,029.0,022.5,13.1,0000.0,0015.27,0006.49,0005.67
2024-02-13 18:34:00,SystemResetWarning,0826.5,5.00,000.00,020.7,020.3,000.0,029.0,022.6,13.6,0000.0,0015.68,0006.50,0005.67
2024-02-13 18:35:00,SystemResetWarning,0826.5,5.00,000.00,020.8,020.3,000.0,029.0,022.6,15.2,0000.0,0016.08,0006.46,0005.66
2024-02-13 18:36:00,SystemResetWarning,0826.5,5.00,000.00,020.8,020.3,000.0,029.0,022.6,14.7,0000.0,0016.51,0006.45,0005.62
2024-02-13 18:37:00,SystemResetWarning,0826.4,4.99,000.00,020.8,020.3,000.0,029.1,022.6,14.8,0000.0,0016.53,0006.41,0005.58
2024-02-13 18:38:00,SystemResetWarning,0826.4,4.99,000.00,020.8,020.3,000.0,029.1,022.6,14.9,0000.0,0016.04,0006.41,0005.55
2024-02-13 18:39:00,SystemResetWarning,0826.4,5.00,000.00,020.8,020.4,000.0,029.1,022.6,14.7,0000.0,0015.31,0006.30,0005.45
2024-02-13 18:40:00,SystemResetWarning,0826.3,5.00,000.00,020.8,020.4,000.0,029.1,022.6,14.5,0000.0,0015.35,0006.10,0005.27
2024-02-13 18:41:00,SystemResetWarning,0826.2,5.01,000.00,020.8,020.4,000.0,029.1,022.7,14.5,0000.0,0015.07,0005.98,0005.19
2024-02-13 18:42:00,SystemResetWarning,0826.2,5.01,000.00,020.9,020.4,000.0,029.1,022.7,14.2,0000.0,0014.67,0005.92,0005.14
2024-02-13 18:43:00,SystemResetWarning,0826.2,5.00,000.00,020.9,020.4,000.0,029.1,022.7,14.6,0000.0,0014.09,0005.81,0005.08
2024-02-13 18:44:00,SystemResetWarning,0826.2,5.00,000.00,020.9,020.4,000.0,029.1,022.7,14.7,0000.0,0012.75,0005.73,0005.04
2024-02-13 18:45:00,SystemResetWarning,0826.2,5.00,000.00,020.9,020.4,000.0,029.1,022.7,15.1,0000.0,0012.25,0005.67,0004.98
2024-02-13 18:46:00,SystemResetWarning,0826.2,5.00,000.00,020.9,020.5,000.0,029.1,022.7,14.2,0000.0,0011.85,0005.68,0004.94
2024-02-13 18:47:00,SystemResetWarning,0826.1,5.00,000.00,020.9,020.5,000.0,029.2,022.7,14.2,0000.0,0011.23,0005.66,0004.92
2024-02-13 18:48:00,SystemResetWarning,0826.1,5.00,000.00,020.9,020.5,000.0,029.2,022.8,14.0,0000.0,0011.09,0005.59,0004.88
2024-02-13 18:49:00,SystemResetWarning,0826.1,5.01,000.00,020.9,020.5,000.0,029.2,022.8,12.3,0000.0,0010.81,0005.47,0004.78
2024-02-13 18:50:00,SystemResetWarning,0826.0,5.01,000.00,020.9,020.5,000.0,029.2,022.8,11.4,0000.0,0010.74,0005.45,0004.76
2024-02-13 18:51:00,SystemResetWarning,0826.0,4.99,000.00,021.0,020.5,000.0,029.2,022.8,12.2,0000.0,0011.05,0005.60,0004.87
2024-02-13 18:52:00,SystemResetWarning,0826.1,5.00,000.00,021.0,020.5,000.0,029.2,022.8,12.5,0000.0,0011.25,0005.65,0004.90
2024-02-13 18:53:00,SystemResetWarning,0826.1,5.00,000.00,021.0,020.5,000.0,029.2,022.8,12.8,0000.0,0011.49,0005.60,0004.85
2024-02-13 18:54:00,SystemResetWarning,0826.0,4.99,000.00,021.0,020.5,000.0,029.3,022.8,13.2,0000.0,0011.51,0005.58,0004.82
2024-02-13 18:55:00,SystemResetWarning,0826.0,5.00,000.00,021.0,020.6,000.0,029.3,022.8,13.4,0000.0,0011.52,0005.52,0004.74
2024-02-13 18:56:00,SystemResetWarning,0826.0,5.01,000.00,021.0,020.6,000.0,029.3,022.8,12.7,0000.0,0011.66,0005.32,0004.56
2024-02-13 18:57:00,SystemResetWarning,0825.9,5.01,000.00,021.0,020.6,000.0,029.3,022.8,11.5,0000.0,0011.58,0005.10,0004.38
2024-02-13 18:58:00,SystemResetWarning,0825.9,5.00,000.00,021.0,020.6,000.0,029.3,022.8,11.4,0000.0,0011.45,0004.89,0004.19
2024-02-13 18:59:00,SystemResetWarning,0825.9,5.00,000.00,021.1,020.6,000.0,029.3,022.9,12.0,0000.0,0011.44,0004.75,0004.05
